[[{"header":{"parameterUnit":"m.s-1","parameterCategory":1,"la1":30.2991,"la2":30.254,"lo1":-89.0895,"lo2":-89.0444,"dy":0.0017,"dx":0.0017,"nx":28,"ny":28,"refTime":"2025-07-11T03:00:00:Z","depth":0,"parameterNumber":2,"parameterNumberName":"U-component_of_WINDS"},"data":[0,0,0,0,0,0,0,0,0,0,0,0,0,0,0,0,0,0,0,0,0,0,0,0,0,0,0,0,0,0,0,0,0,0,0,0,0,0,0,0,0,0,0,0,0,0,0,0,0,0,0,0,0,0,0,0,0,0,4.3515,4.3517,0,4.3668,4.367,4.3671,4.3634,4.3631,4.3628,4.3625,4.3783,4.379,4.3797,0,0,0,0,0,0,0,0,0,0,0,0,0,4.3188,4.3194,4.3515,4.3517,4.3519,4.3668,4.367,4.3672,4.3634,4.3631,4.3627,4.3624,4.3781,4.3789,4.3797,0,0,0,0,0,0,0,0,0,0,0,0,0,4.3335,4.3196,4.3515,4.3518,4.352,4.3667,4.367,4.3672,4.3635,4.3631,4.3626,4.3622,4.3778,4.3788,4.3798,4.3953,0,0,4.383,4.3835,0,0,0,0,0,0,0,0,4.3326,4.3347,4.3516,4.3518,4.352,4.3627,4.3612,4.3766,4.3636,4.3591,4.3625,4.362,4.3735,4.3749,4.3787,4.396,4.3967,4.3831,4.3838,4.3842,4.3845,0,0,0,0,0,0,0,4.3316,4.334,4.3575,4.3518,4.3521,4.3511,4.3527,4.3641,4.3686,4.3595,4.3592,4.3611,4.3735,4.3777,4.3791,4.3969,4.3831,4.384,4.3847,4.3851,4.427,4.4275,0,0,0,0,0,0,4.3304,4.3332,4.3571,4.358,4.341,4.3521,4.3538,4.3597,4.3685,4.3694,4.3615,4.3609,4.3761,4.3778,4.3796,4.3978,4.3842,4.3852,4.3858,4.4265,4.4271,4.4276,0,0,0,0,0,0,4.3297,4.3326,4.3564,4.3455,4.3485,4.3531,4.3598,4.3603,4.3644,4.37,4.3708,4.3649,4.3759,4.3781,4.3912,4.3983,4.3857,4.3866,4.426,4.4267,4.4274,4.4345,0,0,0,0,0,0,4.3288,4.3324,4.3383,4.3457,4.3491,4.3679,4.3602,4.3609,4.3663,4.3656,4.3734,4.3743,4.3757,4.3897,4.3923,4.3995,4.3874,4.4253,4.4263,4.4271,4.4337,4.4354,4.4369,0,0,0,0,0,4.3277,4.3399,4.3387,4.3416,4.3567,4.3684,4.3703,4.3716,4.3669,4.3728,4.3763,4.3741,4.3972,4.3911,4.394,4.4016,4.4249,4.426,4.4271,4.433,4.4351,4.4369,0,0,0,0,0,0,4.3334,4.3409,4.3396,4.3546,4.3608,4.3677,4.3753,4.3739,4.3816,4.3807,4.382,4.3838,4.3971,4.4007,4.3938,4.4167,4.4103,4.412,4.4138,4.4159,4.4174,4.4162,4.3883,0,0,0,0,0,4.3364,4.3453,4.3514,4.364,4.3672,4.3707,4.3759,4.3762,4.3828,4.3854,4.3899,4.3964,4.405,4.4107,4.419,4.4343,4.4357,4.4409,4.4425,4.4438,4.4452,4.453,4.4553,4.4312,4.4312,4.4312,0,0,4.3427,4.3479,4.3535,4.3653,4.3702,4.3792,4.373,4.3829,4.3895,4.387,4.3995,4.403,4.4102,4.4243,4.4308,4.4278,4.4521,4.4452,4.4462,4.4469,4.4544,4.4566,4.4586,4.432,4.4318,4.4317,0,0,4.3587,4.3638,4.3745,4.3795,4.3869,4.3891,4.3917,4.3987,4.4008,4.4134,4.4115,4.4195,4.4345,4.4395,4.4441,4.4616,4.4597,4.4643,4.4726,4.4802,4.4821,4.4838,4.4896,4.4917,4.4657,4.4657,4.4658,0,4.3657,4.3792,4.3803,4.3903,4.3953,4.3933,4.4041,4.4089,4.4187,4.4221,4.4186,4.437,4.4418,4.4568,4.461,4.465,4.4677,4.4633,4.4818,4.4834,4.485,4.4906,4.4928,4.4662,4.4662,4.4661,4.4661,0,4.3871,4.3965,4.4044,4.4136,4.4196,4.43,4.4325,4.4384,4.4382,4.4407,4.4533,4.4589,4.4681,4.4718,4.4719,4.4867,4.4845,4.4814,4.475,4.4878,4.493,4.4951,4.4669,4.4667,4.4666,4.4665,0,0,4.4072,4.4167,4.4195,4.4234,4.4313,4.4386,4.4487,4.4575,4.4624,4.4692,4.4775,4.49,4.487,4.4922,4.4928,4.4995,4.5124,4.4955,4.4957,4.4981,4.5286,4.5306,4.5331,4.5113,4.5117,4.5121,4.5278,0,4.4236,4.4414,4.4425,4.4585,4.4669,4.465,4.4737,4.4794,4.482,4.4894,4.4923,4.501,4.4966,4.4996,4.5062,4.5095,4.5185,4.5084,4.5188,4.5191,4.5166,4.5359,4.5382,4.5528,4.5299,4.5303,4.5306,0,4.4452,4.4522,4.469,4.4752,4.4788,4.4867,4.4946,4.5019,4.5082,4.5095,4.5151,4.5146,4.5248,4.5182,4.532,4.5251,4.5294,4.5316,4.5322,4.5329,4.5254,4.5368,4.5576,4.5596,4.5339,4.5336,4.5334,0,4.4575,4.4714,4.4831,4.4866,4.4943,4.4997,4.5032,4.509,4.5141,4.5211,4.5243,4.5325,4.5368,4.5431,4.5447,4.5398,4.5584,4.552,4.5595,4.5595,4.5633,4.563,4.5847,4.5667,4.5667,4.5667,4.5666,0,4.4755,4.4858,4.4887,4.4959,4.5072,4.5083,4.5194,4.5225,4.5277,4.5353,4.5342,4.5413,4.5432,4.5507,4.5521,4.563,4.5652,4.5663,4.5665,4.5662,4.566,4.5689,4.5677,4.5672,4.5671,4.567,4.5669,0,4.4913,4.4937,4.5062,4.5123,4.5141,4.5221,4.5272,4.534,4.5363,4.5459,4.5482,4.5519,4.5605,4.5628,4.5733,4.5742,4.587,4.5864,4.5848,4.5847,4.5919,4.591,4.6159,4.619,4.5994,4.5996,4.5997,0,4.5024,4.5102,4.517,4.5219,4.5255,4.5336,4.5386,4.54,4.5453,4.5528,4.5586,4.5671,4.5739,4.5879,4.5914,4.5992,4.5986,4.6068,4.5998,4.5991,4.5982,4.5975,4.5981,4.608,4.6082,4.6084,4.6085,0,4.5217,4.5224,4.5298,4.5374,4.5435,4.5496,4.5555,4.5596,4.5618,4.5678,4.5765,4.5818,4.5922,4.6005,4.6084,4.6119,4.6105,4.6107,4.6128,4.6124,4.6109,4.6114,4.588,4.6101,4.6099,4.6098,4.6097,4.6097,4.5352,4.5418,4.5475,4.5556,4.5601,4.5655,4.572,4.575,4.5823,4.5908,4.5912,4.6006,4.6063,4.6167,4.6205,4.6278,4.6253,4.6285,4.6292,4.6298,4.6302,4.6101,4.6293,4.6293,4.6292,4.6292,4.6292,0,4.5541,4.5576,4.565,4.5731,4.5794,4.5775,4.5838,4.5891,4.5973,4.6028,4.6094,4.6192,4.6272,4.6312,4.6391,4.6441,4.6436,4.6461,4.6455,4.6462,4.6322,4.6294,4.6463,4.6463,4.6463,4.6463,4.6463,4.6463,4.5646,4.5756,4.5769,4.5899,4.5933,4.6024,4.6061,4.611,4.6152,4.6262,4.6327,4.6353,4.64,4.6482,4.6553,4.6563,4.659,4.6617,4.6623,4.6491,4.6473,4.6456,4.643,4.6624,4.6624,4.6757,4.6758,4.6759]},{"header":{"parameterUnit":"m.s-1","parameterCategory":1,"la1":30.2991,"la2":30.254,"lo1":-89.0895,"lo2":-89.0444,"dy":0.0017,"dx":0.0017,"nx":28,"ny":28,"refTime":"2025-07-11T03:00:00:Z","depth":0,"parameterNumber":3,"parameterNumberName":"V-component_of_WINDS"},"data":[0,0,0,0,0,0,0,0,0,0,0,0,0,0,0,0,0,0,0,0,0,0,0,0,0,0,0,0,0,0,0,0,0,0,0,0,0,0,0,0,0,0,0,0,0,0,0,0,0,0,0,0,0,0,0,0,0,0,2.1267,2.1268,0,2.1328,2.1329,2.1329,2.1284,2.1282,2.128,2.1278,2.134,2.1344,2.1347,0,0,0,0,0,0,0,0,0,0,0,0,0,2.1109,2.1112,2.1267,2.1268,2.1268,2.1328,2.1329,2.1329,2.1284,2.1282,2.1279,2.1277,2.1339,2.1343,2.1348,0,0,0,0,0,0,0,0,0,0,0,0,0,2.1175,2.1113,2.1267,2.1253,2.1252,2.1328,2.1329,2.133,2.1285,2.1282,2.1279,2.1276,2.1338,2.1343,2.1348,2.1441,0,0,2.1364,2.1367,0,0,0,0,0,0,0,0,2.1171,2.1181,2.1254,2.1254,2.1253,2.1295,2.1296,2.1367,2.1285,2.1272,2.1278,2.1274,2.1328,2.1334,2.1352,2.1443,2.1446,2.1365,2.1368,2.137,2.1372,0,0,0,0,0,0,0,2.1167,2.1178,2.1291,2.1255,2.1255,2.1243,2.1249,2.1309,2.1316,2.1273,2.127,2.1278,2.1327,2.1347,2.1353,2.1447,2.1365,2.1369,2.1373,2.1375,2.1615,2.1618,0,0,0,0,0,0,2.1163,2.1174,2.1289,2.1293,2.1204,2.1248,2.1255,2.1285,2.1315,2.1317,2.128,2.1276,2.1339,2.1347,2.1355,2.1464,2.137,2.1375,2.1378,2.1612,2.1616,2.1619,0,0,0,0,0,0,2.116,2.1174,2.1287,2.1233,2.1246,2.1254,2.1288,2.1288,2.1307,2.1321,2.1322,2.1299,2.1337,2.1347,2.1419,2.1465,2.1378,2.1382,2.1608,2.1613,2.1618,2.1683,0,0,0,0,0,0,2.1156,2.1173,2.1209,2.1234,2.1249,2.1351,2.1291,2.1291,2.1316,2.1311,2.1339,2.1341,2.1336,2.1411,2.1424,2.1471,2.1386,2.1604,2.1611,2.1616,2.1677,2.1689,2.17,0,0,0,0,0,2.115,2.1226,2.1211,2.1225,2.1294,2.1353,2.1362,2.1355,2.132,2.1356,2.1364,2.134,2.1458,2.1419,2.1433,2.1482,2.1601,2.1609,2.1616,2.1671,2.1687,2.17,0,0,0,0,0,0,2.1207,2.1229,2.1213,2.1298,2.1324,2.1346,2.139,2.1372,2.1408,2.1401,2.139,2.1397,2.1472,2.1484,2.1441,2.1572,2.1524,2.1534,2.1562,2.1576,2.1588,2.1583,2.1391,0,0,0,0,0,2.1229,2.1275,2.1292,2.1366,2.1379,2.1383,2.1408,2.14,2.1427,2.1438,2.1451,2.1478,2.152,2.1549,2.1589,2.1678,2.1683,2.1718,2.173,2.174,2.1749,2.1795,2.1811,2.1643,2.1643,2.1643,0,0,2.1275,2.1293,2.1323,2.1377,2.1396,2.1444,2.1392,2.1446,2.1481,2.1446,2.1514,2.1525,2.1553,2.1633,2.1669,2.1646,2.1796,2.1749,2.1757,2.1761,2.1804,2.182,2.1834,2.1648,2.1647,2.1647,0,0,2.1385,2.1403,2.1466,2.1486,2.1515,2.1516,2.1531,2.1555,2.1561,2.1629,2.1603,2.1644,2.1719,2.174,2.176,2.1875,2.1853,2.1888,2.195,2.1995,2.2008,2.2019,2.2059,2.2074,2.1897,2.1897,2.1897,0,2.1439,2.151,2.15,2.1555,2.1579,2.1548,2.1611,2.1631,2.1672,2.1689,2.1662,2.1753,2.177,2.1854,2.1882,2.19,2.1916,2.1885,2.2007,2.2018,2.2029,2.2067,2.2082,2.1901,2.1901,2.19,2.19,0,2.1575,2.1624,2.1671,2.1711,2.174,2.1799,2.1797,2.1827,2.1816,2.182,2.1889,2.1908,2.1951,2.197,2.196,2.2052,2.2036,2.2008,2.196,2.2049,2.2084,2.2099,2.1907,2.1906,2.1904,2.1903,0,0,2.1723,2.1754,2.1772,2.1789,2.1818,2.1856,2.1912,2.1954,2.1979,2.2008,2.2054,2.2117,2.2091,2.2114,2.2106,2.2145,2.2233,2.2112,2.2112,2.2133,2.2334,2.2354,2.2372,2.2219,2.2221,2.2223,2.2331,0,2.1832,2.1931,2.1922,2.2015,2.206,2.203,2.2079,2.2102,2.2107,2.2145,2.215,2.2194,2.2156,2.217,2.2208,2.2214,2.2273,2.2207,2.2261,2.2263,2.2254,2.239,2.2413,2.2513,2.2345,2.2347,2.2349,0,2.1974,2.2007,2.2104,2.2125,2.2143,2.2187,2.2223,2.2261,2.2285,2.2285,2.231,2.2295,2.235,2.23,2.2376,2.2331,2.2352,2.2359,2.2362,2.2367,2.2311,2.2398,2.2546,2.2561,2.2371,2.2369,2.2368,0,2.2071,2.2139,2.2206,2.2221,2.2247,2.2279,2.2291,2.2312,2.2337,2.2369,2.2384,2.2422,2.2443,2.2472,2.2466,2.2431,2.2543,2.2493,2.2544,2.2545,2.257,2.2568,2.2722,2.2584,2.2584,2.2584,2.2583,0,2.2194,2.2255,2.2249,2.229,2.2356,2.2346,2.2411,2.2419,2.2438,2.248,2.2457,2.2496,2.2486,2.2525,2.2521,2.2583,2.2593,2.2594,2.2592,2.2596,2.2596,2.261,2.2603,2.2588,2.2587,2.2586,2.2585,0,2.2314,2.2313,2.2383,2.2401,2.2407,2.2455,2.247,2.2508,2.251,2.2563,2.2574,2.2577,2.2621,2.2619,2.2669,2.2666,2.2742,2.2733,2.2734,2.2732,2.2783,2.2778,2.2952,2.2973,2.2822,2.2823,2.2824,0,2.2393,2.2438,2.2461,2.2486,2.2501,2.2543,2.2567,2.2558,2.2585,2.2615,2.2649,2.2691,2.2723,2.2795,2.2801,2.2839,2.2829,2.2887,2.2835,2.2837,2.2829,2.2826,2.283,2.2898,2.2899,2.2901,2.2902,0,2.2532,2.2529,2.2566,2.2602,2.2632,2.266,2.2686,2.2708,2.2701,2.2732,2.2777,2.2802,2.2852,2.2893,2.2929,2.294,2.292,2.2918,2.2932,2.2936,2.2935,2.2935,2.2762,2.2914,2.2913,2.2912,2.2912,2.2911,2.2633,2.2671,2.2693,2.2734,2.2752,2.2776,2.2812,2.2818,2.2855,2.2895,2.2887,2.2936,2.2958,2.3003,2.3018,2.3056,2.3035,2.3055,2.306,2.3065,2.3071,2.2929,2.3062,2.3062,2.3062,2.3061,2.3061,0,2.277,2.2782,2.282,2.2856,2.2889,2.2866,2.2893,2.2921,2.2965,2.2986,2.3019,2.3069,2.3108,2.3117,2.3155,2.3183,2.3175,2.3193,2.3191,2.3194,2.3088,2.3072,2.3199,2.3199,2.3199,2.3199,2.3199,2.3199,2.2846,2.2909,2.2908,2.2979,2.2991,2.3039,2.3056,2.3078,2.3094,2.3151,2.3184,2.3189,2.3205,2.3243,2.3278,2.328,2.3294,2.3316,2.3314,2.3215,2.3201,2.3188,2.3173,2.332,2.332,2.3417,2.3418,2.3418]}]]